Home > Weather > San Angelo > Past weeks

Flag for USA Past Weather in San Angelo, Texas, USA — Yesterday and Last 2 Weeks

Now
84 °F

Sunny.


Feels Like: 89 °F
Forecast: 74 / 92 °F
Wind: 22 mph from Southwest

Location: Mathis Field

Current Time: May 25, 2016 at 11:52:43 AM

Latest Report: May 25, 2016 at 10:51 AM


Visibility: 6 mi

Pressure: 29.90 "Hg (28.06 "Hg at 561m altitude)

Humidity: 65%

Dew Point: 71 °F

Location of San AngeloLocation

Past Weather in San Angelo — Graph

°F

San Angelo Temperature Yesterday

Maximum temperature yesterday: 85 °F (at 2:51 PM)
Minimum temperature yesterday: 74 °F (at 6:51 AM)
Average temperature yesterday: 80 °F

High & Low Weather Summary for the Past Weeks

 TemperatureHumidityPressure
High98 °F (May 10, 3:51 PM)100% (May 20, 3:51 AM)30.22 "Hg (May 20, 3:51 AM)
Low55 °F (May 18, 6:51 AM)18% (May 10, 2:51 PM)29.67 "Hg (May 16, 7:51 PM)
Average73 °F73%29.93 "Hg
* Reported May 10 9:51 AM — May 25 9:51 AM, San Angelo, Weather by CustomWeather, © 2016

Note: Actual official high and low records may vary slightly from our data, if they occured in-between our weather recording intervals... More about our weather records

Advertising

San Angelo Weather History for the Previous 24 Hours

Scroll right to see more
 ConditionsComfort  
Time TempWeatherWind HumidityBarometerVisibility
9:51 AM
Wed, May 25
82 °FSunny.20 mph72%29.89 "Hg5 mi
8:51 AM79 °FOvercast.10 mph82%29.89 "Hg5 mi
7:51 AM78 °FPartly sunny.9 mph84%29.85 "Hg4 mi
6:51 AM77 °FPassing clouds.8 mph85%29.85 "Hg5 mi
5:51 AM77 °FPassing clouds.13 mph85%29.83 "Hg5 mi
5:04 AM77 °FPassing clouds.13 mph85%29.90 "Hg5 mi
3:51 AM76 °FFog.9 mph88%29.82 "Hg5 mi
2:51 AM77 °FClear.20 mph82%29.82 "Hg6 mi
1:51 AM77 °FClear.20 mph82%29.85 "Hg6 mi
12:51 AM77 °FHaze.10 mph82%29.85 "Hg6 mi
11:51 PM
Tue, May 24
77 °FClear.14 mph82%29.86 "Hg7 mi
10:51 PM78 °FClear.16 mph79%29.85 "Hg8 mi
9:51 PM79 °FClear.8 mph74%29.84 "Hg10 mi
8:51 PM80 °FSunny.9 mph71%29.83 "Hg10 mi
7:51 PM82 °FSunny.7 mph65%29.81 "Hg10 mi
6:51 PM84 °FSunny.9 mph61%29.80 "Hg10 mi
5:51 PM85 °FSunny.9 mph57%29.80 "Hg10 mi
4:51 PM85 °FSunny.13 mph57%29.80 "Hg10 mi
3:51 PM85 °FPassing clouds.13 mph59%29.83 "Hg10 mi
2:51 PM85 °FScattered clouds.10 mph61%29.83 "Hg10 mi
1:51 PM84 °FBroken clouds.14 mph63%29.83 "Hg10 mi
12:51 PM83 °FMostly cloudy.15 mph65%29.84 "Hg10 mi
11:58 AM81 °FPartly sunny.18 mph69%29.91 "Hg9 mi
11:02 AM80 °FOvercast.17 mph69%29.92 "Hg9 mi
Weather by CustomWeather, © 2016

See weather overviewHow to use our weather pages